| Date | Time | Temp. (oF) | Dew Point (oF) | Rel. Hum. (%) | Press. (in.) | Wind Dir. | Wind Speed (mph) | Hourly Rainfall (in.) |
|
|---|---|---|---|---|---|---|---|---|---|
| 1 | 12/25 | 00:00 | 29 | 28 | 100 | 29.83 | NE | 4 | 0.00 |
| 2 | 12/24 | 23:00 | 29 | 28 | 100 | 29.87 | E | 3 | 0.02 |
| 3 | 12/24 | 22:00 | 29 | 28 | 100 | 29.91 | ENE | 3 | 0.02 |
| 4 | 12/24 | 21:00 | 29 | 28 | 99 | 29.90 | NE | 1 | 0.00 |
| 5 | 12/24 | 20:00 | 29 | 28 | 97 | 29.94 | S | 3 | 0.01 |
| 6 | 12/24 | 19:00 | 30 | 27 | 91 | 29.95 | SSE | 1 | 0.00 |
| 7 | 12/24 | 18:00 | 32 | 25 | 78 | 29.94 | S | 3 | 0.00 |
| 8 | 12/24 | 17:00 | 34 | 23 | 65 | 29.97 | E | 1 | 0.00 |
| 9 | 12/24 | 16:00 | 34 | 22 | 63 | 29.97 | SE | 2 | 0.00 |
| 10 | 12/24 | 15:00 | 34 | 22 | 62 | 29.98 | NE | 4 | 0.00 |
| 11 | 12/24 | 14:00 | 35 | 22 | 59 | 30.01 | NNE | 4 | 0.00 |
| 12 | 12/24 | 13:00 | 35 | 22 | 59 | 30.02 | NNW | 9 | 0.00 |
| 13 | 12/24 | 12:00 | 34 | 21 | 60 | 30.06 | NNE | 3 | 0.00 |
| 14 | 12/24 | 11:00 | 33 | 20 | 61 | 30.12 | WNW | 7 | 0.00 |
| 15 | 12/24 | 10:00 | 32 | 21 | 64 | 30.15 | WNW | 5 | 0.00 |
| 16 | 12/24 | 09:00 | 30 | 20 | 67 | 30.15 | WNW | 1 | 0.00 |
| 17 | 12/24 | 08:00 | 28 | 19 | 70 | 30.13 | WNW | 4 | 0.00 |
| 18 | 12/24 | 07:00 | 28 | 19 | 69 | 30.13 | WNW | 3 | 0.00 |
| 19 | 12/24 | 06:00 | 29 | 19 | 67 | 30.11 | NW | 2 | 0.00 |
| 20 | 12/24 | 05:00 | 30 | 20 | 68 | 30.08 | WNW | 3 | 0.00 |
| 21 | 12/24 | 04:00 | 32 | 22 | 68 | 30.08 | NNW | 4 | 0.00 |
| 22 | 12/24 | 03:00 | 33 | 22 | 65 | 30.05 | NW | 5 | 0.00 |
| 23 | 12/24 | 02:00 | 34 | 21 | 61 | 30.03 | WNW | 7 | 0.00 |
| 24 | 12/24 | 01:00 | 34 | 22 | 62 | 30.01 | WNW | 4 | 0.00 |